Current weather by "City, St" or "zip code"  
 

Current Conditions: Wheeling, Wheeling Ohio County Airport, WV

Fair


69.0 F

Last Updated on Oct 23 2020, 9:53 pm EDT
Humidity: 61%
Wind Speed: S 6.9 mph
Barometer 29.95 in
Dewpoint: 55.0 F
Visibility: 10.00 mi
Precip: --
Heat Index: NA
Wind Chill: NA
Current conditions at:

Wheeling, Wheeling Ohio County Airport, WV (KHLG)

Lat: 40.17028 Lon: 80.64444

Local Radar Image active severe weather and emergency alerts image image weather storm and storm spotter reports image weather observation monitoring service image
Local
Radar
Active
Alerts
Storm Reports Obs
Monitoring

Sign-up For Email & Text Message Weather Alert Notification Services



Advertise Here

Observation History for Wheeling, Wheeling Ohio County Airport, WV


Time Wind
(mph)
Vis
(mi)
Weather Precip (in) Temperature (F) Relative
Humidity
Wind
Chill
(F)
Heat
Index
(F)
Pressure
Air Dwpt altimeter
(in)
sea level
(mb)
Rmks
9:53 pm EDT S 6.9 10.00 Fair -- 69.0 55.0 61% NA NA 29.95 1013.6
8:53 pm EDT S 9.2 10.00 Fair -- 70.0 55.0 59% NA NA 29.94 1013.5
7:53 pm EDT S 10.4 10.00 Fair -- 71.0 55.0 57% NA NA 29.95 1013.8
6:53 pm EDT S 9.2 10.00 Fair -- 73.0 55.0 53% NA NA 29.95 1013.8
5:53 pm EDT S 13.8 10.00 Fair -- 74.0 55.9 54% NA NA 29.96 1013.9
4:53 pm EDT S 12.7 10.00 A Few Clouds -- 77.0 57.0 50% NA NA 29.97 1014.4
3:53 pm EDT S 16.1 G 21.9 10.00 A Few Clouds -- 78.0 57.9 50% NA NA 29.99 1015.1
2:53 pm EDT SW 13.8 G 23.0 10.00 A Few Clouds -- 77.0 57.9 52% NA NA 30.02 1016.1
1:53 pm EDT SW 15.0 G 20.7 10.00 Mostly Cloudy -- 75.0 59.0 58% NA NA 30.04 1016.8
12:53 pm EDT SW 9.2 G 18.4 10.00 Fair -- 75.0 59.0 58% NA NA 30.07 1017.7
11:53 am EDT SW 12.7 G 18.4 10.00 Fair -- 72.0 57.0 59% NA NA 30.10 1018.9
10:53 am EDT SW 9.2 G 17.3 3.00 A Few Clouds -- 69.0 55.0 61% NA NA 30.12 1019.5
9:53 am EDT S 9.2 7.00 Mostly Cloudy -- 66.0 55.0 68% NA NA 30.12 1019.8
8:53 am EDT S 4.6 10.00 Fair -- 64.0 54.0 70% NA NA 30.13 1019.9
7:53 am EDT S 5.8 10.00 Fair -- 62.0 52.0 70% 62 NA 30.12 1019.5
6:53 am EDT S 6.9 10.00 Fair -- 62.0 52.0 70% 62 NA 30.11 1019.3
5:53 am EDT S 5.8 10.00 Fair -- 62.0 52.0 70% 62 NA 30.10 1018.9
4:53 am EDT S 8.1 10.00 Fair -- 63.0 53.1 70% 63 NA 30.09 1018.4
3:53 am EDT S 9.2 10.00 Fair -- 63.0 53.1 70% 62 NA 30.09 1018.3
2:53 am EDT S 6.9 10.00 Fair -- 64.0 53.1 68% NA NA 30.10 1018.7
1:53 am EDT S 6.9 10.00 Fair -- 64.0 53.1 68% NA NA 30.10 1018.7
12:53 am EDT S 5.8 10.00 Fair -- 65.0 53.1 66% NA NA 30.11 1019.1
11:53 pm EDT SE 6.9 10.00 Fair -- 63.0 53.1 70% 63 NA 30.12 1019.6
10:53 pm EDT SE 6.9 10.00 Fair -- 65.0 53.1 66% NA NA 30.14 1020.2

Regional Weather Observation


Washington - Washington County Airport, PA (KAFJ)

Fair
68.0 F

Pittsburgh, Pittsburgh International Airport, PA (KPIT)

Mostly Cloudy
70.0 F

Beaver County Airport, PA (KBVI)

Thunderstorm in Vicinity
71.0 F

New Philadelphia, Harry Clever Field, OH (KPHD)

Thunderstorm Heavy Rain Fog/Mist
64.0 F

Akron Canton Regional Airport, OH (KCAK)

Thunderstorm Rain Fog/Mist
66.0 F

Wooster, Wayne County Airport, OH (KBJJ)

Light Rain
63.0 F